Location: Asheville, NC
(35.6000°N, 82.5500°W)
Time: 02:28:33
(UTC-05:00)

Vanguard 2 Rocket - Pass Details

Date: 18 February 2018
Orbit: 555 x 3327 km, 32.9° (Epoch: 18 February)

Event Time Altitude Azimuth Distance (km) Brightness Sun altitude
Exits shadow 02:15:09 53° 100° (E) 3,828 9.8 -58.4°
Drops below altitude 10° 02:28:25 10° 95° (E) 6,066 11.3 -56.4°
Sets 02:32:42 0° 94° (E) 6,896 11.7 -55.7°
